When you browse on this site, cookies collect data to enhance your experience and personalize the content and advertising you see.
Visit our Privacy Policy to learn more. By continuing to use the site, you agree to this use of cookies and data.
  • In Hungary
  • List of Countries
  • For 7 days
  • Water Temperature
  • Weather Map
  • News
  • Weather Widgets
  • user-avatar
    Login

    Hourly Weather Bashevo

    Today, 25 January, Saturday

    Time Temperature Precipitation Wind Pressure Humidity
    00:00 0°C° 0.1 mm 5 mps 727 mmHg 88%
    01:00 0°C° 0.1 mm 4 mps 727 mmHg 89%
    02:00 -1°C° 0.1 mm 4 mps 727 mmHg 89%
    03:00 -1°C° 0 mm 4 mps 727 mmHg 90%
    04:00 -1°C° 0 mm 4 mps 727 mmHg 90%
    05:00 -1°C° 0 mm 4 mps 727 mmHg 91%
    06:00 -1°C° 0.1 mm 4 mps 726 mmHg 90%
    07:00 -1°C° 0.1 mm 4 mps 726 mmHg 90%
    08:00 -1°C° 0 mm 4 mps 726 mmHg 88%
    09:00 -1°C° 0.1 mm 5 mps 726 mmHg 85%
    10:00 -2°C° 0.1 mm 6 mps 726 mmHg 83%
    11:00 -2°C° 0.1 mm 7 mps 726 mmHg 81%
    12:00 -2°C° 0.2 mm 7 mps 727 mmHg 75%
    13:00 -2°C° 0.2 mm 6 mps 727 mmHg 70%
    14:00 -2°C° 0.2 mm 6 mps 727 mmHg 64%
    15:00 -2°C° 0 mm 6 mps 727 mmHg 66%
    16:00 -3°C° 0 mm 6 mps 728 mmHg 68%
    17:00 -4°C° 0 mm 5 mps 728 mmHg 71%
    18:00 -4°C° 0 mm 5 mps 729 mmHg 71%
    19:00 -4°C° 0 mm 6 mps 729 mmHg 71%
    20:00 -4°C° 0 mm 6 mps 730 mmHg 71%
    21:00 -4°C° 0 mm 5 mps 731 mmHg 72%
    22:00 -4°C° 0 mm 5 mps 732 mmHg 73%
    23:00 -5°C° 0 mm 5 mps 732 mmHg 74%

    Tomorrow, 26 January, Sunday

    Time Temperature Precipitation Wind Pressure Humidity
    00:00 -5°C° 0 mm 5 mps 733 mmHg 75%
    01:00 -4°C° 0 mm 4 mps 733 mmHg 76%
    02:00 -4°C° 0 mm 4 mps 734 mmHg 78%
    03:00 -4°C° 0 mm 4 mps 735 mmHg 79%
    04:00 -4°C° 0 mm 3 mps 735 mmHg 81%
    05:00 -5°C° 0 mm 3 mps 736 mmHg 82%
    06:00 -5°C° 0 mm 3 mps 736 mmHg 83%
    07:00 -5°C° 0 mm 3 mps 736 mmHg 83%
    08:00 -5°C° 0 mm 3 mps 736 mmHg 84%
    09:00 -4°C° 0 mm 3 mps 736 mmHg 79%
    10:00 -2°C° 0 mm 3 mps 736 mmHg 75%
    11:00 -3°C° 0 mm 4 mps 736 mmHg 71%
    12:00 -2°C° 0.1 mm 4 mps 735 mmHg 77%
    13:00 -2°C° 0.1 mm 5 mps 735 mmHg 82%
    14:00 -3°C° 0.1 mm 6 mps 735 mmHg 88%
    15:00 -2°C° 0.4 mm 6 mps 734 mmHg 91%
    16:00 -1°C° 0.4 mm 5 mps 734 mmHg 93%
    17:00 -1°C° 0.4 mm 5 mps 734 mmHg 96%
    18:00 0°C° 0.1 mm 5 mps 734 mmHg 95%
    19:00 0°C° 0.1 mm 5 mps 734 mmHg 94%
    20:00 0°C° 0.1 mm 5 mps 734 mmHg 93%
    21:00 +1°C° 0 mm 5 mps 734 mmHg 93%
    22:00 +1°C° 0 mm 5 mps 734 mmHg 93%
    23:00 +1°C° 0 mm 5 mps 734 mmHg 92%

    Day after tomorrow, 27 January, Monday

    Time Temperature Precipitation Wind Pressure Humidity
    00:00 +1°C° 0.1 mm 4 mps 734 mmHg 93%
    01:00 +1°C° 0.1 mm 4 mps 734 mmHg 93%
    02:00 +1°C° 0.1 mm 4 mps 734 mmHg 93%
    03:00 +1°C° 0.1 mm 4 mps 734 mmHg 94%
    04:00 +1°C° 0.1 mm 4 mps 734 mmHg 94%
    05:00 +1°C° 0.1 mm 3 mps 734 mmHg 95%
    06:00 +1°C° 0.1 mm 3 mps 735 mmHg 96%
    07:00 +1°C° 0.1 mm 3 mps 735 mmHg 97%
    08:00 +2°C° 0.1 mm 2 mps 735 mmHg 97%
    09:00 +2°C° 0.2 mm 2 mps 735 mmHg 97%
    10:00 +2°C° 0.2 mm 2 mps 735 mmHg 98%
    11:00 +2°C° 0.2 mm 2 mps 735 mmHg 98%
    12:00 +2°C° 0.2 mm 2 mps 735 mmHg 98%
    13:00 +2°C° 0.2 mm 2 mps 735 mmHg 98%
    14:00 +2°C° 0.2 mm 2 mps 735 mmHg 98%
    15:00 +2°C° 0.2 mm 2 mps 735 mmHg 98%
    16:00 +2°C° 0.2 mm 2 mps 735 mmHg 98%
    17:00 +2°C° 0.2 mm 2 mps 735 mmHg 98%
    18:00 +2°C° 0.2 mm 2 mps 735 mmHg 98%
    19:00 +1°C° 0.2 mm 2 mps 735 mmHg 98%
    20:00 +1°C° 0.2 mm 2 mps 734 mmHg 98%
    21:00 +1°C° 0.2 mm 2 mps 734 mmHg 98%
    22:00 +1°C° 0.2 mm 2 mps 734 mmHg 98%
    23:00 +1°C° 0.2 mm 2 mps 734 mmHg 98%

    28 January, Tuesday

    Time Temperature Precipitation Wind Pressure Humidity
    00:00 -1°C° 0.3 mm 2 mps 734 mmHg 98%
    01:00 -1°C° 0.3 mm 2 mps 734 mmHg 98%
    02:00 -1°C° 0.3 mm 2 mps 734 mmHg 98%
    03:00 -1°C° 0.3 mm 2 mps 734 mmHg 98%
    04:00 -1°C° 0.3 mm 2 mps 733 mmHg 98%
    05:00 +1°C° 0.3 mm 2 mps 733 mmHg 98%
    06:00 +1°C° 0.2 mm 2 mps 733 mmHg 98%
    07:00 +1°C° 0.2 mm 2 mps 733 mmHg 98%
    08:00 +2°C° 0.2 mm 1 mps 733 mmHg 98%
    09:00 +1°C° 0.1 mm 2 mps 733 mmHg 98%
    10:00 +1°C° 0.1 mm 2 mps 733 mmHg 97%
    11:00 +1°C° 0.1 mm 2 mps 733 mmHg 97%
    12:00 +1°C° 0 mm 2 mps 733 mmHg 97%
    13:00 +1°C° 0 mm 2 mps 733 mmHg 96%
    14:00 +1°C° 0 mm 2 mps 732 mmHg 96%
    15:00 +1°C° 0 mm 2 mps 732 mmHg 96%
    16:00 +1°C° 0 mm 2 mps 732 mmHg 96%
    17:00 -1°C° 0 mm 2 mps 732 mmHg 97%
    18:00 -1°C° 0 mm 2 mps 732 mmHg 97%
    19:00 -1°C° 0 mm 2 mps 732 mmHg 97%
    20:00 -1°C° 0 mm 2 mps 732 mmHg 97%
    21:00 -1°C° 0 mm 3 mps 732 mmHg 96%
    22:00 -1°C° 0 mm 3 mps 732 mmHg 96%
    23:00 -1°C° 0 mm 3 mps 732 mmHg 95%

    29 January, Wednesday

    Time Temperature Precipitation Wind Pressure Humidity
    00:00 0°C° 0 mm 3 mps 731 mmHg 96%
    01:00 0°C° 0 mm 3 mps 731 mmHg 96%
    02:00 0°C° 0 mm 3 mps 731 mmHg 97%
    03:00 0°C° 0 mm 3 mps 730 mmHg 95%
    04:00 -1°C° 0 mm 4 mps 730 mmHg 93%
    05:00 -1°C° 0 mm 4 mps 730 mmHg 91%
    06:00 -1°C° 0 mm 4 mps 730 mmHg 92%
    07:00 -2°C° 0 mm 4 mps 729 mmHg 92%
    08:00 -2°C° 0 mm 4 mps 729 mmHg 92%
    09:00 -2°C° 0.2 mm 4 mps 729 mmHg 93%
    10:00 -2°C° 0.2 mm 4 mps 729 mmHg 95%
    11:00 -2°C° 0.2 mm 4 mps 729 mmHg 96%
    12:00 -2°C° 0.4 mm 4 mps 729 mmHg 96%
    13:00 -1°C° 0.4 mm 4 mps 728 mmHg 96%
    14:00 -1°C° 0.4 mm 4 mps 728 mmHg 96%
    15:00 -1°C° 0.2 mm 4 mps 728 mmHg 96%
    16:00 -1°C° 0.2 mm 4 mps 727 mmHg 97%
    17:00 +1°C° 0.2 mm 3 mps 727 mmHg 97%
    18:00 +1°C° 0.3 mm 3 mps 727 mmHg 97%
    19:00 +1°C° 0.3 mm 3 mps 726 mmHg 97%
    20:00 +1°C° 0.3 mm 3 mps 726 mmHg 97%
    21:00 0°C° 0.2 mm 4 mps 726 mmHg 97%
    22:00 0°C° 0.2 mm 4 mps 725 mmHg 97%
    23:00 0°C° 0.2 mm 4 mps 725 mmHg 96%

    30 January, Thursday

    Time Temperature Precipitation Wind Pressure Humidity
    00:00 -1°C° 0.8 mm 4 mps 725 mmHg 97%
    01:00 -1°C° 0.8 mm 4 mps 724 mmHg 97%
    02:00 0°C° 0.8 mm 3 mps 724 mmHg 97%
    03:00 0°C° 0.6 mm 3 mps 724 mmHg 97%
    04:00 -1°C° 0.6 mm 3 mps 724 mmHg 97%
    05:00 -1°C° 0.6 mm 3 mps 724 mmHg 97%
    06:00 -1°C° 0.4 mm 3 mps 724 mmHg 94%
    07:00 -3°C° 0.4 mm 4 mps 724 mmHg 91%
    08:00 -3°C° 0.4 mm 4 mps 724 mmHg 89%
    09:00 -3°C° 0.1 mm 4 mps 724 mmHg 90%
    10:00 -3°C° 0.1 mm 4 mps 724 mmHg 90%
    11:00 -3°C° 0.1 mm 4 mps 724 mmHg 91%
    12:00 -3°C° 0.4 mm 4 mps 724 mmHg 93%
    13:00 -2°C° 0.4 mm 4 mps 724 mmHg 95%
    14:00 -2°C° 0.4 mm 4 mps 724 mmHg 96%
    15:00 -2°C° 0.5 mm 4 mps 724 mmHg 96%
    16:00 -2°C° 0.5 mm 4 mps 724 mmHg 97%
    17:00 -2°C° 0.5 mm 5 mps 724 mmHg 97%
    18:00 -2°C° 0.4 mm 4 mps 724 mmHg 96%
    19:00 -2°C° 0.4 mm 4 mps 725 mmHg 96%
    20:00 -2°C° 0.4 mm 4 mps 725 mmHg 96%
    21:00 -2°C° 0.4 mm 4 mps 725 mmHg 96%
    22:00 -2°C° 0.4 mm 4 mps 725 mmHg 96%
    23:00 -2°C° 0.4 mm 4 mps 725 mmHg 96%
    Show more